TimeCDT,TemperatureF,Dew PointF,Humidity,Sea Level PressureIn,VisibilityMPH,Wind Direction,Wind SpeedMPH,Gust SpeedMPH,PrecipitationIn,Events,Conditions,WindDirDegrees,DateUTC
12:56 AM,48.9,45.0,86,29.83,-9999.0,ENE,12.7,25.3,0.18,,Unknown,60,2013-10-06 05:56:00
1:56 AM,48.9,45.0,86,29.79,-9999.0,NE,13.8,25.3,0.27,,Unknown,50,2013-10-06 06:56:00
2:56 AM,50.0,46.0,86,29.76,-9999.0,NE,13.8,23.0,0.13,,Unknown,50,2013-10-06 07:56:00
3:56 AM,50.0,46.0,86,29.73,-9999.0,NE,12.7,19.6,0.20,,Unknown,50,2013-10-06 08:56:00
4:56 AM,51.1,46.0,83,29.70,-9999.0,NE,10.4,18.4,N/A,,Unknown,50,2013-10-06 09:56:00
5:56 AM,51.1,46.0,83,29.71,-9999.0,NE,11.5,18.4,N/A,,Unknown,50,2013-10-06 10:56:00
6:56 AM,51.1,46.9,86,29.68,-9999.0,ENE,10.4,-,N/A,,Unknown,60,2013-10-06 11:56:00
7:56 AM,52.0,48.0,86,29.68,-9999.0,NE,5.8,-,N/A,,Unknown,40,2013-10-06 12:56:00
8:56 AM,51.1,46.9,86,29.70,-9999.0,Calm,Calm,-,N/A,,Unknown,0,2013-10-06 13:56:00
9:56 AM,51.1,46.0,83,29.69,-9999.0,North,8.1,-,N/A,,Unknown,350,2013-10-06 14:56:00
10:56 AM,52.0,46.0,80,29.69,-9999.0,North,8.1,-,N/A,,Unknown,350,2013-10-06 15:56:00
11:56 AM,52.0,45.0,77,29.69,-9999.0,NNW,6.9,-,N/A,,Unknown,340,2013-10-06 16:56:00
12:56 PM,55.0,46.0,72,29.68,-9999.0,Variable,3.5,-,N/A,,Unknown,0,2013-10-06 17:56:00
1:56 PM,55.9,46.0,69,29.67,-9999.0,Variable,3.5,-,N/A,,Unknown,0,2013-10-06 18:56:00
2:56 PM,55.0,46.0,72,29.66,-9999.0,Calm,Calm,-,N/A,,Unknown,0,2013-10-06 19:56:00
3:56 PM,53.1,45.0,74,29.67,-9999.0,Variable,3.5,-,N/A,,Unknown,0,2013-10-06 20:56:00
4:56 PM,52.0,45.0,77,29.68,-9999.0,Variable,3.5,-,N/A,,Unknown,0,2013-10-06 21:56:00
5:56 PM,51.1,44.1,77,29.71,-9999.0,Variable,3.5,-,N/A,,Unknown,0,2013-10-06 22:56:00
6:56 PM,51.1,44.1,77,29.70,-9999.0,Variable,3.5,-,N/A,,Unknown,0,2013-10-06 23:56:00
7:56 PM,48.9,42.1,77,29.71,-9999.0,Calm,Calm,-,N/A,,Unknown,0,2013-10-07 00:56:00
8:56 PM,50.0,42.1,74,29.71,-9999.0,Calm,Calm,-,N/A,,Unknown,0,2013-10-07 01:56:00
9:56 PM,45.0,41.0,86,29.73,-9999.0,Calm,Calm,-,N/A,,Unknown,0,2013-10-07 02:56:00
10:56 PM,43.0,39.9,89,29.74,-9999.0,NW,3.5,-,N/A,,Unknown,310,2013-10-07 03:56:00
11:56 PM,41.0,37.9,89,29.73,-9999.0,Calm,Calm,-,N/A,,Unknown,0,2013-10-07 04:56:00